Starlink 30905

operational
NORAD ID: 58356 Int'l Des: 2023-177 Owner: SPXS Country: US Constellation: starlink
LEOCIRCULAR

Starlink 30905について

説明を読み込み中...

リアルタイム位置

3D地球を読み込み中...

次回通過

高度履歴

Altitude vs Time

uPlot chart will show altitude changes over time

軌道要素

1 58356U 23177F 25350.00033044 .00002669 00000-0 21247-3 0 9998
2 58356 43.0043 86.5659 0001642 268.2890 91.7764 15.02558855115566
Epoch: Dec 16, 2025 • Age: 21 hours

現在のステータス

高度 562.3 km
速度 7.58 km/s
衛星直下点 -18.28°S, 26.11°E
打ち上げ日 Nov 18, 2023
運用期間 2 years
タイプ internet

技術仕様

分類 Payload
質量 730.00 kg
乾燥質量 700.00 kg
総質量 730.00 kg
長さ 0.30 m
直径 4.10 m
スパン 29.00 m
形状 Box + pan
製造者 SPXS
バスタイプ Starlink V2M
フェーズステータス In Orbit
所有者/国 SPXS/US

大規模コンステレーション

Loading constellations...